Location: Unspecified
(0.0000°N, 0.0000°E)
Time: 12:42:02
(UTC+00:00)

SRMSAT - Pass Details

Date: 09 December 2017
Orbit: 848 x 866 km, 20.0° (Epoch: 18 June)

Event Time Altitude Azimuth Distance (km) Brightness Sun altitude
Exits shadow 03:05:41 30° 143° (SE) 1,493 ? -37.8°
Drops below altitude 10° 03:09:58 10° 100° (E) 2,491 ? -36.8°
Sets 03:12:49 0° 90° (E) 3,428 ? -36.2°
